sat.trackr.live / text

‹ back to catalog

STARLINK-11739 [DTC]

NORAD 64374 · 2025-127E

PAYLOAD ACTIVE UNKNOWN

§ Identity

Operator
Country
US
Launch date
2025-06-13
Launch site
AFETR
Launch vehicle
Mass (kg)
RCS (m²)

Purposes: comms

External: N2YO · Heavens-Above · Gunter

§ Orbital elements

Epoch: 2026-05-25T00:48:30.751200Z

Period
91.67 min
Inclination
43.0003°
Eccentricity
0.0002193
Mean motion
15.70877297 rev/d
Perigee alt
354.9 km
Apogee alt
357.9 km
Semi-major
6,734.5 km
B*
1.2943e-3
RAAN
343.9739°
Arg perigee
272.1425°
Mean anomaly
87.9192°
Rev number
5,551

§ Raw data

STARLINK-11739 [DTC]1 64374U 25127E   26145.03368925  .00169327  00000+0  12943-2 0  99932 64374  43.0003 343.9739 0002193 272.1425  87.9192 15.70877297 55517

JSON: /api/v1/satellites/64374 · /tle

For live sub-satellite position, see the globe view (requires WebGL).

§ Visibility from observer

Set your observer location to see the next 7 days of passes ≥ 10°. The values pass through the URL so the page stays shareable.

No JS? Fill the form by hand. The geolocation button needs JavaScript.